Location: D�derode
(51.8092°N, 10.1065°E)
Time: 02:10:44
(UTC+00:00)

Cosmos 1812 - Pass Details

Date: 20 April 2021
Orbit: 516 x 519 km, 82.5° (Epoch: 10 May)

Event Time Altitude Azimuth Distance (km) Brightness Sun altitude
Exits shadow 00:30:59 25° 307° (NW) 1,073 4.4 -24.8°
Drops below altitude 10° 00:33:42 10° 350° (N) 1,766 6.2 -24.6°
Sets 00:36:06 0° 3° (N) 2,660 7.5 -24.5°
